Theta_e
309 309 309 309 310 310 310 311 312 312 312 312 313 313 313 314 314 314 314 314 316 318 318 318 316 316 317 318 318 320 315 316 319 323 323 326 324 336 339 342 343 344 340 339 337
309 309 309 310 310 310 311 311 312 312 312 312 313 314 314 314 314 316 317 315 318 319 318 318 316 317 317 319 319 318 314 317 319 321 321 323 325 326 337 337 342 341 339 340 339
310 310 310 310 311 311 312 312 313 312 312 311 312 313 314 314 315 323 318 319 320 320 319 317 315 316 318 318 319 317 316 318 320 322 322 323 323 325 335 333 342 341 342 343 341
310 310 310 311 311 312 312 313 313 313 313 312 312 313 314 314 318 321 320 318 317 317 316 315 316 318 315 315 318 318 318 319 320 321 321 320 323 323 328 331 336 339 340 342 341
311 311 311 311 311 312 312 313 313 313 313 312 313 314 314 314 315 321 320 319 319 319 316 315 318 318 316 316 317 317 317 320 321 320 320 321 322 321 324 331 334 338 343 342 341
312 312 312 312 312 312 312 313 313 313 314 313 313 314 313 315 320 321 319 319 320 320 316 316 319 319 318 316 316 318 318 319 321 322 322 320 321 321 324 330 335 335 343 341 341
312 312 312 312 312 312 312 313 313 314 315 316 312 315 314 316 319 321 320 319 320 321 321 321 320 320 319 317 319 319 317 316 319 321 318 321 319 319 324 326 336 334 343 342 341
312 312 312 312 312 312 313 313 314 314 316 317 313 314 315 320 320 320 319 318 319 320 321 321 320 320 320 320 319 316 316 316 318 320 323 320 319 319 324 323 329 339 342 343 342
311 311 312 312 312 312 313 313 315 318 320 315 313 324 322 322 321 319 319 319 319 320 321 320 321 320 320 315 312 312 316 317 317 320 320 318 318 319 324 323 324 334 341 343 342
311 311 312 312 312 312 315 318 320 321 320 320 316 320 323 323 320 320 318 319 319 320 320 320 321 316 313 312 314 316 317 316 317 320 319 320 318 317 324 325 326 326 337 342 341
311 311 312 312 313 312 318 318 316 318 315 316 323 326 325 323 321 320 319 318 318 318 318 320 317 316 315 314 316 316 316 318 319 321 321 320 321 320 322 322 323 324 324 330 341
311 312 312 313 313 314 316 316 315 315 315 315 316 316 317 323 319 321 320 319 318 316 317 318 318 319 318 319 318 319 318 318 319 321 320 319 320 320 320 322 324 325 326 325 331
311 312 312 313 313 317 316 314 314 315 315 315 317 319 319 319 319 321 321 320 318 316 316 318 320 322 322 321 321 320 320 319 320 320 320 320 319 319 322 322 325 325 326 326 325
312 312 312 313 314 315 314 314 314 315 316 321 321 321 321 319 319 320 320 320 317 316 316 317 320 322 321 322 322 322 321 321 322 320 319 319 319 319 319 319 321 323 324 326 325
312 312 312 312 312 314 315 314 314 316 327 326 320 321 320 320 321 321 320 320 319 318 319 317 318 318 319 320 322 320 322 322 322 320 319 318 318 318 319 320 320 327 327 326 327
311 311 312 312 311 312 313 313 316 321 324 324 322 321 319 320 321 320 319 320 321 319 319 317 321 320 319 321 322 322 322 319 317 317 318 320 321 320 321 320 327 329 339 340 337
311 311 311 311 312 313 313 317 317 323 324 323 322 319 319 321 321 320 319 319 318 320 319 320 321 321 321 321 319 318 317 318 319 320 320 320 321 320 323 326 325 326 334 337 334
310 310 311 312 311 312 315 315 323 325 322 322 321 319 320 321 321 320 319 318 318 319 319 320 322 323 323 319 318 320 318 319 323 322 321 320 324 324 326 327 327 328 329 330 341
309 310 311 314 311 311 316 316 321 323 322 323 320 319 318 321 322 323 320 319 320 318 320 321 323 324 324 321 319 321 320 318 320 320 319 319 324 325 323 327 327 327 329 329 333
309 310 313 315 312 314 312 316 319 320 321 321 320 321 320 321 319 318 322 325 325 323 320 323 323 324 324 323 321 320 318 318 315 322 323 322 324 326 326 326 327 325 326 329 329
309 317 315 315 313 315 310 312 317 319 320 319 319 319 319 319 319 319 325 325 324 324 324 323 321 323 323 322 325 322 321 317 315 319 321 321 319 324 325 328 327 327 329 328 330
312 314 316 315 311 312 311 314 317 319 319 320 319 318 319 319 319 320 323 325 323 325 326 322 322 324 325 323 323 322 324 319 319 321 320 319 320 322 325 327 326 328 328 327 334
312 316 315 314 311 310 314 320 321 319 318 318 318 318 318 318 319 320 321 322 322 321 321 320 322 326 324 321 322 323 322 321 320 320 323 323 322 321 327 327 328 328 330 339 338
313 314 316 315 315 315 317 319 321 319 318 318 317 317 317 317 317 318 319 323 322 320 320 321 322 325 326 326 324 323 323 321 319 320 323 324 325 324 321 321 325 329 339 339 338
311 313 317 313 315 313 316 317 319 320 319 319 318 318 317 318 318 318 321 321 324 322 321 316 318 321 321 322 323 323 322 322 321 320 320 320 320 321 320 329 334 336 336 336 337
313 313 314 318 316 313 314 318 320 320 320 320 318 319 319 320 321 321 320 320 321 319 319 319 320 323 323 323 322 322 320 321 321 321 318 319 319 317 331 329 329 329 328 327 334
310 312 312 313 313 313 315 319 320 320 320 319 319 317 319 319 319 319 319 319 319 318 317 320 321 321 323 320 320 320 319 320 319 320 321 320 322 322 323 323 323 322 321 322 328
Wind_Speed
10 10 11 12 13 13 13 14 15 16 16 16 16 16 17 17 17 18 20 8 6 3 5 9 9 10 12 8 7 5 3 6 5 3 8 35 12 6 7 20 9 12 14 29 34
10 10 11 12 12 13 13 14 15 15 15 16 16 16 16 17 18 14 7 6 7 7 8 10 10 8 9 7 4 5 4 7 8 7 9 21 13 12 8 17 5 14 21 33 34
11 11 12 12 13 13 13 13 15 15 16 15 15 14 14 15 14 5 7 5 4 8 9 10 9 9 6 5 12 3 5 11 19 28 26 15 21 14 11 3 23 32 32 33 31
11 12 13 13 13 13 13 13 14 14 16 15 13 13 13 11 1 4 7 8 3 4 6 6 5 3 3 3 1 3 12 21 31 36 17 11 13 13 6 9 27 24 33 35 31
12 12 14 14 14 14 13 13 14 15 17 14 12 11 11 7 8 0 6 6 3 4 3 6 6 2 2 5 12 5 9 14 23 25 21 17 10 9 16 5 13 29 35 34 32
13 14 15 15 15 15 14 13 14 15 15 12 11 10 8 5 2 4 8 9 3 4 2 9 3 6 11 8 2 7 15 21 22 19 17 5 10 8 23 11 19 30 35 34 35
13 15 15 16 16 15 15 14 14 15 14 13 10 9 11 13 2 2 4 9 2 2 5 6 13 15 14 10 12 16 7 11 16 12 11 9 11 9 22 13 24 31 37 36 35
14 16 16 16 17 16 15 14 14 15 14 13 8 8 8 1 6 6 8 4 6 8 12 11 10 8 3 10 11 7 4 6 9 6 23 4 15 16 23 15 21 33 37 36 38
15 17 17 17 17 16 14 14 15 15 11 7 4 5 8 3 5 4 10 8 5 3 8 6 9 4 7 4 6 6 4 7 11 11 6 5 11 16 29 22 19 37 39 45 42
16 17 18 17 16 15 11 14 9 6 5 6 6 6 3 3 4 3 1 9 5 7 3 6 3 3 4 4 4 5 4 5 7 8 8 5 8 9 17 11 12 6 34 37 41
17 18 18 15 13 11 11 10 8 2 18 10 11 13 18 2 8 6 5 2 5 5 3 6 3 6 11 8 9 5 5 7 8 6 6 2 5 9 16 7 15 18 14 28 42
17 18 17 13 9 5 10 11 11 12 14 20 22 23 23 16 10 6 5 6 4 3 4 5 6 11 9 9 6 9 8 7 7 9 6 8 7 7 6 8 21 29 34 25 27
17 17 17 11 2 2 10 11 13 15 5 14 8 8 9 13 10 18 9 9 3 3 6 5 10 3 5 13 6 4 2 5 5 7 5 6 9 8 21 14 28 33 35 37 24
17 17 16 8 1 2 6 2 4 12 4 6 3 3 5 9 6 14 16 6 3 7 5 7 13 5 7 5 5 2 6 4 7 6 5 5 6 7 9 11 15 28 30 28 23
16 16 11 10 6 1 5 7 5 3 3 3 3 7 9 9 4 2 18 13 5 6 3 8 10 9 8 7 3 7 4 2 1 4 4 7 3 8 8 9 11 10 2 8 6
15 15 12 11 8 3 7 9 1 4 2 3 6 5 4 7 3 3 8 13 7 4 2 8 19 4 7 6 1 1 5 8 5 3 4 4 2 7 6 7 8 16 19 19 15
14 13 13 10 3 3 9 2 4 2 6 2 4 5 5 5 4 6 6 5 4 2 4 7 6 6 9 2 7 9 7 4 5 5 5 5 2 7 13 11 15 15 8 14 13
13 13 11 7 6 5 3 4 2 4 4 4 4 5 6 6 5 8 5 2 5 4 1 3 7 6 6 8 8 4 7 5 4 3 6 6 2 6 6 9 26 26 36 25 9
12 10 7 3 5 5 2 3 5 3 5 7 7 4 6 9 3 5 8 3 5 9 7 2 4 6 8 4 8 4 2 6 4 0 3 3 6 7 11 13 21 22 28 30 18
10 6 2 7 5 6 4 4 3 4 6 5 6 6 7 8 11 8 3 5 6 5 5 3 3 2 6 7 6 3 3 3 3 1 2 4 5 4 7 8 6 10 14 15 17
4 2 5 5 2 2 3 5 4 6 6 4 4 4 4 4 3 7 7 2 6 7 12 4 3 6 3 3 2 8 6 4 2 5 5 2 6 6 4 1 2 4 11 15 10
2 1 12 8 2 1 2 4 3 2 5 3 2 3 3 5 4 6 6 4 11 6 3 4 2 2 5 6 5 5 4 4 4 8 3 4 6 5 3 2 5 2 10 15 9
3 1 10 11 2 2 6 4 6 3 3 3 5 5 5 5 5 4 6 11 10 4 3 2 3 4 10 7 8 5 4 2 3 1 2 2 6 2 3 6 5 7 15 15 15
3 1 5 11 4 3 1 3 5 1 5 5 1 3 5 6 3 4 7 11 17 11 4 3 3 6 5 5 2 6 13 6 4 1 4 5 7 11 11 10 17 13 17 18 19
5 4 2 3 6 8 3 2 3 5 3 4 3 2 1 1 6 6 6 6 9 16 7 4 1 3 5 6 4 4 10 15 8 6 4 11 12 8 6 5 12 19 22 24 26
3 3 3 2 1 7 4 3 1 2 1 3 3 3 1 4 3 2 3 4 2 6 5 7 3 3 3 4 7 6 6 9 12 15 7 10 10 7 13 20 23 20 20 25 23
5 4 4 2 4 4 3 1 1 3 1 13 3 5 6 3 3 1 3 6 4 1 1 2 2 3 4 5 5 4 6 4 6 6 6 6 10 5 9 17 19 22 26 28 30
Wind_Direction
334 333 330 330 329 329 329 327 327 324 322 318 314 312 312 310 307 298 286 292 233 213 279 298 296 289 314 269 249 226 76 271 252 358 275 307 333 139 116 130 196 200 169 155 148
337 336 333 332 332 331 330 330 330 326 323 319 315 315 315 315 315 309 319 264 231 263 285 298 302 302 313 258 287 136 130 248 203 224 250 281 298 336 162 127 147 143 133 150 151
339 338 336 332 332 331 329 331 331 328 326 320 316 315 314 322 327 26 36 25 255 268 271 272 283 299 283 273 236 232 208 255 271 270 273 277 291 325 162 203 170 156 153 158 159
340 337 334 332 330 329 328 329 329 330 329 321 317 315 314 320 295 32 359 358 37 318 272 238 250 241 267 299 315 245 264 264 275 280 280 259 294 309 200 250 184 172 160 163 167
339 336 333 331 328 325 324 323 325 328 328 320 317 314 312 302 279 246 10 340 342 339 279 202 240 265 285 319 326 197 275 304 300 289 275 280 296 282 294 230 163 166 165 166 175
337 335 333 332 328 323 320 320 320 325 328 322 313 311 299 286 18 107 5 343 299 8 197 194 221 321 288 285 203 305 303 297 309 291 297 287 291 328 295 179 176 175 177 174 181
334 332 331 330 327 323 320 317 317 320 322 318 303 305 284 259 16 214 327 338 197 308 318 315 308 273 279 316 327 316 343 319 313 312 290 317 309 282 277 183 193 187 187 186 184
331 330 328 330 328 324 321 316 313 313 309 313 290 295 266 220 257 261 255 237 288 279 289 304 317 316 286 316 334 352 35 10 289 314 282 162 270 268 271 264 206 197 197 195 193
328 327 327 329 327 325 326 318 314 309 302 307 270 290 273 308 267 314 237 219 271 242 259 294 322 326 312 54 2 353 274 295 309 304 287 146 240 261 263 264 269 206 201 201 206
324 324 325 329 329 328 342 327 325 332 342 288 249 303 250 343 95 335 202 218 267 250 256 264 285 30 1 76 228 243 285 293 276 299 12 11 276 301 299 284 274 295 217 208 210
321 322 324 330 331 332 9 5 2 333 319 263 280 270 274 112 319 324 195 184 255 298 192 272 75 240 244 211 225 240 256 266 267 286 15 286 272 284 279 289 310 302 275 215 216
318 322 324 331 336 4 28 46 18 325 301 293 277 263 262 260 300 293 189 196 223 264 350 356 268 247 246 253 225 253 257 284 292 323 2 326 300 274 271 293 312 301 293 277 220
317 321 323 330 317 20 72 35 354 333 290 296 254 243 245 228 245 249 271 203 179 251 253 194 251 295 246 272 276 309 276 296 295 323 355 357 328 335 310 329 315 302 289 274 256
315 319 325 334 214 17 61 355 339 334 46 279 220 255 226 197 262 243 222 180 187 226 242 241 273 249 312 261 204 268 270 328 332 25 312 56 299 301 287 305 298 294 276 266 261
310 313 320 314 288 222 291 302 294 317 58 174 179 162 165 175 334 266 195 226 209 253 54 261 307 317 311 266 138 231 260 329 311 354 17 357 36 272 303 316 304 294 284 290 232
303 306 306 299 296 256 297 291 338 46 273 218 149 177 108 218 271 76 170 221 264 256 256 247 284 231 238 329 201 42 35 21 39 49 24 252 144 290 330 282 308 313 113 123 125
296 295 294 279 252 267 318 295 49 129 342 161 207 157 197 220 214 159 182 177 173 72 309 319 272 269 214 281 339 62 57 353 356 7 223 306 30 259 302 28 57 18 0 145 158
295 287 275 274 222 240 303 56 97 270 321 5 4 133 194 188 241 181 138 200 255 123 353 257 326 353 320 174 187 184 145 149 243 260 274 323 297 287 290 336 27 31 34 31 251
298 286 273 167 162 190 112 79 207 293 343 359 349 14 351 349 257 139 191 224 222 164 181 228 271 319 37 0 130 269 219 182 140 107 32 275 311 327 356 11 9 8 37 24 26
308 300 213 162 134 144 79 222 254 12 14 16 43 37 38 349 12 352 92 322 358 39 211 248 297 338 315 10 51 62 253 6 12 252 290 301 301 241 341 336 19 0 22 36 16
317 346 131 133 127 169 157 230 288 56 65 59 9 28 8 13 344 347 341 355 17 2 62 9 80 294 37 25 55 353 337 353 127 144 176 239 275 226 242 206 22 31 54 39 32
209 13 172 187 165 205 194 214 328 3 47 57 56 10 48 8 357 29 355 16 23 24 34 350 131 326 261 272 193 178 70 76 69 304 255 158 264 253 256 138 290 352 347 356 20
212 230 175 204 174 257 289 300 275 274 79 52 10 36 52 18 3 42 350 350 29 61 120 318 14 7 340 351 9 19 25 45 228 89 310 80 274 75 323 298 288 292 37 69 42
213 112 168 208 235 168 265 281 344 272 131 124 208 37 42 17 23 299 359 1 7 21 35 39 120 157 206 237 246 322 329 354 105 30 294 251 275 310 331 325 341 36 59 43 38
210 237 200 212 255 190 187 272 343 4 57 99 32 161 113 317 338 353 7 358 35 10 17 75 171 202 238 285 333 327 321 323 337 241 237 283 286 282 315 81 41 55 50 41 31
173 326 335 328 252 151 183 262 175 336 100 326 159 290 98 110 127 29 13 29 142 344 31 354 298 344 298 321 358 335 299 294 292 301 297 284 279 251 121 74 52 44 36 30 27
169 247 288 333 3 86 212 205 264 337 15 76 111 113 92 93 113 59 316 288 269 196 274 22 69 38 264 358 1 342 268 306 326 350 306 324 325 81 69 60 47 37 34 30 23